STARLINK-11591, 63116

Orbit data source: Space-Track

STARLINK-11591, 63116 is a payload satellite owned by SpaceX/Seattle (US) in LEO that was launched on Thu, 27 Feb 2025 UTC via an FALCON 9 launch vehicle from the Air Force Eastern Test Range (AFETR). Payload-class satellites include a variety of spacecraft equipped with specific instruments for various scientific and technological missions. These include communications satellites like Starlink; space stations such as the ISS; scientific satellites like the Hubble; Earth observation satellites from companies like Planet Labs, Umbra, and HawkEye 360; GPS; miniature CubeSats for education and research; and military/defense satellites.

Loading next visibility...
Identifier
63116, 2025-039N
Orbit
LEO
Country
Flag of USUS
Related business
Manufacturer
SpaceX/Seattle
Mission
Operational Commercial Communications
Bus & Motor
STARLINK V2MD, Unknown motor
Mass
960 kg wet, ~910 kg dry
Launch date (UTC)
2025-02-27 (8 months ago)
Launch vehicle
FALCON 9
Launch site
Air Force Eastern Test Range (AFETR)
Object type
Payload
Rocket body
Debris
Shape & HBR
Box + 2 Pan, 18.1 m
Radar Cross Section
36.964 m², Large (>1 m²)

Expand to show TLE details & history
Last TLE update: 2 days ago

TLE from 2 days ago
0 STARLINK-11591
1 63116U 25039N   25292.68707184  .00315298  00000-0  23685-2 0  9991
2 63116  42.9998   6.3811 0000912 291.5944  68.4826 15.70840636 37447
Epoch: 2025-10-19T16:29Z
TLE epoch observation values (Epoch: 2025-10-19T16:29:23.006Z)
Latitude
-0.00007°
Longitude
90.63501°
Altitude
356.039 km
Speed
7.698 km/s
True Right ascension
00h 25m 31s
True Declination
0° 00' 00"
Sunlit
Object was in full shadow at epoch
Visualization orbit readout
Latitude
Unknown
Longitude
Unknown
Altitude
Unknown
Speed
Unknown
Apparent Right ascension
Unknown
Apparent Declination
Unknown
Sunlit
N/A
Visualization observer readout
Local Sidereal Time
00:26:10
Azimuth
Unknown
Elevation
Unknown
Doppler factor
Unknown
Orbital elements
Apogee altitude
359.089 km
Perigee altitude
357.86 km
Semi-major axis
6,736.612 km
Eccentricity
0.00009
Inclination
42.9998°
RAAN
6.3811°
Arg. of periapsis
291.5944°
True anomaly
68.49232°
Mean anomaly
68.4826°
Eccentric anomaly
68.48746°
Mean motion
3.92537 °/min
Orbital period
91.71 mins
BSTAR
0.0023685
Loading maneuver chart data...
Computing Atmospheric mass density...
Loading historical data...
Loading historical data...
Loading historical data...
Loading historical data...
Loading historical data...
Loading historical data...
Loading historical data...

Documentation

Showing up to 5 results
|